Weather in Dolgiy Most

Russia / Krasnoyarsk Krai     56°44′50″N   96°48′09″E
temp.,
°C
wind,
m/s
gust,
m/s
humid.,
%
clouds,
%
prec.,
mm/h
press.,
hPa
HPBL,
m
11 may, tue
tue1101:00+6ene00665 0.0 102010
04:00+5s117319 0.0 102010
07:00+9nw01625 0.0 1020117
10:00+15n114354 0.0 1018768
13:00+17nne223365 0.0 10172454
16:00+16ne343810 0.0 10162010
19:00+12ne486414 0.3 1017841
22:00+7ne497417 0.0 1020633
12 may, wed
wed1201:00+4ne39775 0.0 1021475
04:00+2ne38830 0.0 1021278
07:00+4ene37665 0.0 1022471
10:00+8ene34445 0.0 10211359
13:00+11ne34345 0.0 10201841
16:00+12ne34305 0.0 10182116
19:00+10ne23395 0.0 1018117
22:00+5ne22560 0.0 101910
13 may, thu
thu1301:00+3e22635 0.0 102025
04:00+1ese22660 0.0 102016
07:00+6ese24515 0.0 1020211
10:00+11ese23344 0.0 10191556
13:00+13ese23295 0.0 10171827
16:00+14se22275 0.0 10151832
19:00+12se23395 0.0 101494
22:00+6se22525 0.0 101411
14 may, fri
fri1401:00+5se2359100 0.0 101352
04:00+3sse226453 0.0 101216
07:00+7s2354100 0.0 1011146
10:00+13s3439100 0.0 1009608
13:00+17sw4630100 0.0 10072160
16:00+14w7860100 0.2 10081455
19:00+9wnw4775100 0.3 1010798
22:00+7w4108249 0.0 1012637
15 may, sat
sat1501:00+4wnw5127888 0.0 1015934
04:00+3w512712 0.0 1017885
07:00+4wsw51270100 0.0 1017831
10:00+5sw61278100 0.3 10161275
13:00+4sw71695100 1.6 10131254
16:00+5wsw61490100 1.2 10111147
19:00+7w51291100 1.4 10131219
22:00+6nw49877 0.4 1016785